Weather History for CYXX - February, 2014

Change the Weather History Date:

Thursday, February 20, 2014

  Actual Average (KBLI) Record (KBLI)
Temperature  
Mean Temperature 42 °F 41 °F  
Max Temperature 49 °F 50 °F 61 °F (1995)
Min Temperature 34 °F 34 °F 15 °F (1986)
Degree Days  
Heating Degree Days 24 24  
Month to date heating degree days 491  
Cooling Degree Days 0 0  
Month to date cooling degree days 0  
Year to date cooling degree days 0  
Moisture  
Dew Point 34 °F    
Average Humidity 72    
Maximum Humidity 93    
Minimum Humidity 49    
Precipitation  
Precipitation 0.08 in 0.20 in 1.31 in (1984)
Month to date precipitation 2.20  
Year to date precipitation 6.87  
Sea Level Pressure  
Sea Level Pressure 30.04 in    
Wind  
Wind Speed 13 mph ()    
Max Wind Speed 22 mph    
Max Gust Speed 30 mph    
Visibility 13.8 miles    
Events Rain    
T = Trace of Precipitation, MM = Missing Value Source: Averaged Metar Reports

Daily Weather History Graph

Daily Weather History Graph

Search for Another Location

Airport or City:

Trip Planner

Search our weather history database for the weather conditions in past years. The results will help you decide how hot, cold, wet, or windy it might be!

Date:

Astronomy

Feb. 20, 2014 Rise Set
Actual Time 7:08 AM PST 5:38 PM PST
Civil Twilight 6:36 AM PST 6:10 PM PST
Nautical Twilight 5:59 AM PST 6:47 PM PST
Astronomical Twilight 5:23 AM PST 7:24 PM PST
Moon No Moon Rise 9:23 AM PST (2/20)
Length of Visible Light 11h 34m
Length of Day
10h 29m
Waning Gibbous, 70% of the Moon is Illuminated
Feb 20
Waning Gibbous
Feb 22
Last Quarter
Mar 1
New
Mar 8
First Quarter
Mar 16
Full

Hourly Weather History & Observations

Time (PST) Temp. Windchill Dew Point Humidity Pressure Visibility Wind Dir Wind Speed Gust Speed Precip Events Conditions
12:00 AM 35.6 °F 30.7 °F 33.8 °F 93% 29.99 in 10.0 mi North 5.8 mph - N/A Rain Light Rain
1:00 AM 35.6 °F 30.7 °F 33.8 °F 93% 29.98 in 10.0 mi North 5.8 mph - N/A Rain Light Rain
2:00 AM 35.6 °F 30.7 °F 33.8 °F 93% 29.97 in 6.0 mi NE 5.8 mph - N/A Rain Light Rain
2:33 AM 39.2 °F 30.5 °F 37.4 °F 93% 29.97 in 6.0 mi South 16.1 mph - N/A Rain Light Rain
3:00 AM 39.2 °F 29.6 °F 35.6 °F 87% 29.96 in 10.0 mi South 19.6 mph 28.8 mph N/A Rain Light Rain Showers
4:00 AM 41 °F - 36 °F 74% 29.95 in 10 mi South 18.4 mph - - Rain Light Rain Showers
4:00 AM 41.0 °F 31.4 °F 35.6 °F 81% 29.94 in 10.0 mi South 21.9 mph 27.6 mph N/A   Overcast
4:29 AM 41.0 °F 32.8 °F 35.6 °F 81% 29.94 in 10.0 mi South 16.1 mph 23.0 mph N/A   Overcast
5:00 AM 41.0 °F 33.1 °F 35.6 °F 81% 29.94 in 10.0 mi South 15.0 mph 20.7 mph N/A   Overcast
6:00 AM 42.8 °F 34.8 °F 37.4 °F 81% 29.93 in 10.0 mi South 17.3 mph - N/A   Overcast
7:00 AM 42.8 °F 34.5 °F 37.4 °F 81% 29.93 in 10.0 mi South 18.4 mph 25.3 mph N/A   Mostly Cloudy
8:00 AM 42.8 °F 33.8 °F 37.4 °F 81% 29.96 in 20.0 mi South 21.9 mph 29.9 mph N/A   Mostly Cloudy
9:00 AM 44.6 °F 36.6 °F 35.6 °F 71% 30.00 in 15.0 mi SSW 19.6 mph 26.5 mph N/A   Mostly Cloudy
10:00 AM 46 °F - 35 °F 56% 30.05 in 19 mi SW 18.4 mph - -   Partly Cloudy
10:00 AM 46.4 °F 39.0 °F 35.6 °F 66% 30.05 in 20.0 mi SW 19.6 mph 26.5 mph N/A   Scattered Clouds
11:00 AM 46.4 °F 39.5 °F 35.6 °F 66% 30.08 in 20.0 mi SW 17.3 mph - N/A   Mostly Cloudy
12:00 PM 46.4 °F 40.4 °F 35.6 °F 66% 30.10 in 25.0 mi WSW 13.8 mph 19.6 mph N/A   Scattered Clouds
1:00 PM 48.2 °F - 32.0 °F 54% 30.09 in 25.0 mi SW 16.1 mph 21.9 mph N/A   Scattered Clouds
2:00 PM 48.2 °F - 32.0 °F 54% 30.09 in 25.0 mi SW 15.0 mph - N/A   Mostly Cloudy
3:00 PM 48.2 °F - 32.0 °F 54% 30.09 in 25.0 mi SW 17.3 mph 23.0 mph N/A   Mostly Cloudy
4:00 PM 47 °F - 34 °F 49% 30.08 in 19 mi SW 13.8 mph - -   Mostly Cloudy
4:00 PM 48.2 °F - 33.8 °F 58% 30.08 in 20.0 mi SW 17.3 mph - N/A   Mostly Cloudy
5:00 PM 46.4 °F 39.8 °F 35.6 °F 66% 30.08 in 25.0 mi SW 16.1 mph - N/A   Mostly Cloudy
6:00 PM 42.8 °F 35.1 °F 33.8 °F 70% 30.09 in 20.0 mi SSW 16.1 mph - N/A   Mostly Cloudy
7:00 PM 41.0 °F 33.5 °F 32.0 °F 70% 30.11 in 15.0 mi SSW 13.8 mph - N/A   Scattered Clouds
8:00 PM 41.0 °F 33.5 °F 32.0 °F 70% 30.12 in 15.0 mi South 13.8 mph - N/A   Mostly Cloudy
9:00 PM 41.0 °F 33.5 °F 32.0 °F 70% 30.12 in 15.0 mi South 13.8 mph - N/A   Overcast
10:00 PM 41 °F - 32 °F 59% 30.14 in 15 mi South 12.7 mph - -   Overcast
10:00 PM 41.0 °F 34.3 °F 32.0 °F 70% 30.14 in 15.0 mi South 11.5 mph - N/A   Overcast
11:00 PM 41.0 °F 32.8 °F 33.8 °F 76% 30.14 in 15.0 mi SSW 16.1 mph - N/A   Mostly Cloudy